Вернуться в каталог

SL-8 R/B

АктивенPO
NORAD 19922·ROCKET BODY·🇷🇺 Russia

Запущен Apr 4, 1989 с Plesetsk Cosmodrome

Loading…

Ближайшие Пролёты (ближайшие 24 часа)

TLE

СвежийSource: Space-Track

Эпоха: Sep 14, 2026, 12:32 UTC

1 19922U 89028B   26257.52250231  .00000002  00000-0 -13482-4 0  9997
2 19922  82.9538  81.6417 0037117 145.1584 215.2014 13.77506748881734

Отслеживайте SL-8 R/B в реальном времени с AllMySat

Download on the App Store